Location: McNierney
(34.1937°N, 106.9061°W)
Time: 10:38:33
(UTC+00:00)

Cosmos 1743 - Pass Details

Date: 11 December 2025
Orbit: 399 x 406 km, 82.5° (Epoch: 21 January)

Event Time Altitude Azimuth Distance (km) Brightness Sun altitude
Rises 13:27:57 0° 202° (SSW) 2,347 6.1 -7.5°
Reaches altitude 10° 13:30:04 10° 212° (SSW) 1,493 5.0 -7.1°
Maximum altitude 13:33:04 35° 280° (W) 704 2.9 -6.5°
Drops below altitude 10° 13:36:07 10° 347° (NNW) 1,513 4.7 -6.0°
Sets 13:38:17 0° 357° (N) 2,384 5.8 -5.6°
